Date,TemperatureHighF,TemperatureAvgF,TemperatureLowF,DewpointHighF,DewpointAvgF,DewpointLowF,HumidityHigh,HumidityAvg,HumidityLow,PressureMaxIn,PressureMinIn,WindSpeedMaxMPH,WindSpeedAvgMPH,GustSpeedMaxMPH,PrecipitationSumIn
2013-1-1,19.4,4.4,-11.9,16.7,0.9,-15.8,91,85,74,30.23,29.99,4,1,6,0.00
2013-1-2,20.8,16.0,13.0,18.5,13.9,10.9,93,91,87,30.01,29.87,4,0,9,0.00
2013-1-3,19.6,11.9,8.0,16.4,8.4,3.8,90,86,77,30.20,30.01,7,4,12,0.00
2013-1-4,28.1,20.4,14.4,19.2,15.4,12.1,92,81,67,30.04,29.95,5,2,8,0.00
2013-1-5,22.0,15.8,9.3,15.5,12.1,7.2,92,85,75,30.01,29.77,4,1,8,0.00
2013-1-6,19.8,13.5,7.4,15.6,10.0,4.0,93,86,76,30.16,29.94,4,1,8,0.00
2013-1-7,34.3,27.8,19.0,27.4,23.3,15.8,92,83,75,29.95,29.81,6,2,11,0.00
2013-1-8,34.9,26.9,17.6,30.0,23.8,15.9,93,88,77,29.88,29.66,6,1,10,0.00
2013-1-9,33.9,29.6,23.9,28.5,24.0,20.9,90,80,69,30.26,29.82,11,4,20,0.00
2013-1-10,41.3,34.1,24.9,32.6,27.2,21.4,93,77,53,30.20,29.62,2,1,6,0.26
2013-1-11,40.0,36.5,34.3,37.9,34.6,32.3,93,93,92,29.62,29.25,3,0,5,0.09
2013-1-12,37.5,14.4,3.6,35.9,9.9,-1.0,94,82,71,30.00,29.27,13,7,22,0.00
2013-1-13,8.8,4.2,1.3,3.5,-0.1,-2.6,86,82,76,30.19,29.97,6,2,12,0.00
2013-1-14,12.1,7.4,3.9,8.6,3.5,0.9,92,84,73,30.35,30.19,7,2,11,0.00
2013-1-15,29.8,20.1,9.8,20.9,14.5,7.5,91,79,64,30.22,29.76,4,2,8,0.00
2013-1-16,36.5,25.4,10.7,33.0,21.0,3.1,94,84,63,30.13,29.58,7,3,10,0.00
2013-1-17,18.1,10.8,1.7,13.0,4.5,-3.2,85,76,60,30.32,30.13,6,2,10,0.00
2013-1-18,41.4,30.6,16.8,33.7,26.0,12.9,93,83,71,30.22,29.65,5,2,9,0.01
2013-1-19,38.7,23.7,1.8,32.9,18.8,-3.8,94,81,62,30.15,29.56,12,4,21,0.00
2013-1-20,8.3,2.6,-2.9,2.6,-3.5,-9.0,86,75,63,30.33,30.15,7,3,12,0.00
2013-1-21,-2.9,-7.0,-11.5,-9.0,-13.0,-17.5,84,75,69,30.31,30.22,8,4,16,0.00
2013-1-22,6.3,-3.4,-11.7,0.1,-9.2,-15.8,83,76,67,30.37,30.20,4,1,8,0.00
2013-1-23,16.0,7.5,-4.1,9.9,0.4,-13.6,90,73,57,30.53,30.09,6,2,16,0.00
2013-1-24,14.1,3.3,-5.8,5.7,-6.3,-14.8,70,64,54,30.61,30.12,3,1,6,0.00
2013-1-25,19.3,12.2,1.7,13.9,5.6,-2.6,83,75,63,30.23,29.89,10,4,16,0.00
2013-1-26,24.8,12.8,-1.2,14.4,5.4,-4.4,88,73,56,30.27,30.03,2,0,6,0.00
2013-1-27,32.2,30.3,23.9,30.4,24.7,14.5,93,80,63,30.03,29.68,1,0,7,0.10
2013-1-28,35.6,32.3,30.6,34.0,30.6,28.8,94,93,93,29.79,29.51,2,0,6,0.11
2013-1-29,35.1,32.0,27.8,32.5,29.5,23.3,94,90,83,29.63,29.41,4,1,6,0.11
2013-1-30,27.7,17.5,8.3,23.2,12.8,3.8,87,82,75,29.68,29.52,5,3,11,0.00
2013-1-31,8.2,-0.2,-8.5,4.4,-5.5,-14.2,84,78,72,30.23,29.68,8,5,13,0.00